Time,TemperatureF,DewpointF,PressureIn,WindDirection,WindDirectionDegrees,WindSpeedMPH,WindSpeedGustMPH,Humidity,HourlyPrecipIn,Conditions,Clouds,dailyrainin,SoftwareType,DateUTC
2013-07-11 00:02:00,72.0,70.0,29.42,South,170,0.0,-999.0,94,-99.99,,,-99.99,,2013-07-11 04:02:00,
2013-07-11 00:12:00,72.0,70.0,29.42,South,170,0.0,-999.0,94,-99.99,,,-99.99,,2013-07-11 04:12:00,
2013-07-11 00:32:00,72.0,70.0,29.41,South,170,0.0,-999.0,94,-99.99,,,-99.99,,2013-07-11 04:32:00,
2013-07-11 00:42:00,72.0,70.0,29.41,South,170,0.0,-999.0,95,-99.99,,,-99.99,,2013-07-11 04:42:00,
2013-07-11 00:53:00,71.0,69.0,29.40,South,170,0.0,-999.0,95,-99.99,,,-99.99,,2013-07-11 04:53:00,
2013-07-11 01:02:00,71.0,69.0,29.40,South,170,0.0,-999.0,95,-99.99,,,-99.99,,2013-07-11 05:02:00,
2013-07-11 01:12:00,71.0,69.0,29.40,South,170,0.0,-999.0,95,-99.99,,,-99.99,,2013-07-11 05:12:00,
2013-07-11 01:22:00,71.0,70.0,29.40,South,170,0.0,-999.0,96,-99.99,,,-99.99,,2013-07-11 05:22:00,
2013-07-11 01:32:00,71.0,70.0,29.40,South,170,0.0,-999.0,96,-99.99,,,-99.99,,2013-07-11 05:32:00,
2013-07-11 01:43:00,71.0,70.0,29.39,South,170,0.0,-999.0,96,-99.99,,,-99.99,,2013-07-11 05:43:00,
2013-07-11 01:52:00,71.0,70.0,29.39,South,170,0.0,-999.0,96,-99.99,,,-99.99,,2013-07-11 05:52:00,
2013-07-11 02:01:00,71.0,70.0,29.39,South,170,0.0,-999.0,96,-99.99,,,-99.99,,2013-07-11 06:01:00,
2013-07-11 02:12:00,71.0,70.0,29.39,South,173,0.0,-999.0,96,-99.99,,,-99.99,,2013-07-11 06:12:00,
2013-07-11 02:22:00,71.0,70.0,29.39,South,173,0.0,-999.0,96,-99.99,,,-99.99,,2013-07-11 06:22:00,
2013-07-11 02:32:00,71.0,70.0,29.39,South,173,0.0,-999.0,96,-99.99,,,-99.99,,2013-07-11 06:32:00,
2013-07-11 02:43:00,72.0,71.0,29.39,South,187,1.0,-999.0,96,-99.99,,,-99.99,,2013-07-11 06:43:00,
2013-07-11 02:52:00,72.0,71.0,29.39,South,187,1.0,-999.0,96,-99.99,,,-99.99,,2013-07-11 06:52:00,
2013-07-11 03:02:00,72.0,71.0,29.39,South,186,2.0,-999.0,96,-99.99,,,-99.99,,2013-07-11 07:02:00,
2013-07-11 03:12:00,72.0,70.0,29.39,South,181,1.0,-999.0,95,-99.99,,,-99.99,,2013-07-11 07:12:00,
2013-07-11 03:22:00,73.0,71.0,29.40,SSW,202,2.0,-999.0,94,-99.99,,,-99.99,,2013-07-11 07:22:00,
2013-07-11 03:32:00,73.0,71.0,29.40,SSW,202,2.0,-999.0,94,-99.99,,,-99.99,,2013-07-11 07:32:00,
2013-07-11 03:45:00,73.0,71.0,29.40,SSE,164,2.0,-999.0,94,-99.99,,,-99.99,,2013-07-11 07:45:00,
2013-07-11 03:53:00,73.0,71.0,29.40,South,172,1.0,-999.0,93,-99.99,,,-99.99,,2013-07-11 07:53:00,
2013-07-11 04:02:00,73.0,71.0,29.40,South,172,1.0,-999.0,93,-99.99,,,-99.99,,2013-07-11 08:02:00,
2013-07-11 04:12:00,73.0,71.0,29.41,SSW,209,2.0,-999.0,92,-99.99,,,-99.99,,2013-07-11 08:12:00,
2013-07-11 04:22:00,73.0,70.0,29.41,South,184,1.0,-999.0,91,-99.99,,,-99.99,,2013-07-11 08:22:00,
2013-07-11 04:34:00,73.0,70.0,29.41,South,184,1.0,-999.0,91,-99.99,,,-99.99,,2013-07-11 08:34:00,
2013-07-11 04:43:00,73.0,70.0,29.41,SSW,202,0.0,-999.0,91,-99.99,,,-99.99,,2013-07-11 08:43:00,
2013-07-11 04:53:00,72.0,70.0,29.41,SSW,202,0.0,-999.0,92,-99.99,,,-99.99,,2013-07-11 08:53:00,
2013-07-11 05:03:00,72.0,70.0,29.41,SSW,202,0.0,-999.0,92,-99.99,,,-99.99,,2013-07-11 09:03:00,
2013-07-11 05:12:00,71.0,69.0,29.41,SSW,202,0.0,-999.0,93,-99.99,,,-99.99,,2013-07-11 09:12:00,
2013-07-11 05:33:00,71.0,69.0,29.42,SSW,202,0.0,-999.0,94,-99.99,,,-99.99,,2013-07-11 09:33:00,
2013-07-11 05:43:00,71.0,69.0,29.41,SSW,202,0.0,-999.0,94,-99.99,,,-99.99,,2013-07-11 09:43:00,
2013-07-11 05:53:00,71.0,69.0,29.41,SSW,202,0.0,-999.0,95,-99.99,,,-99.99,,2013-07-11 09:53:00,
2013-07-11 06:01:00,71.0,69.0,29.41,SSW,202,0.0,-999.0,95,-99.99,,,-99.99,,2013-07-11 10:01:00,
2013-07-11 06:12:00,70.0,68.0,29.42,SSW,202,0.0,-999.0,95,-99.99,,,-99.99,,2013-07-11 10:12:00,
2013-07-11 06:33:00,70.0,68.0,29.42,SSW,202,0.0,-999.0,95,-99.99,,,-99.99,,2013-07-11 10:33:00,
2013-07-11 06:43:00,70.0,69.0,29.43,SSW,202,0.0,-999.0,96,-99.99,,,-99.99,,2013-07-11 10:43:00,
2013-07-11 06:52:00,70.0,69.0,29.43,SSW,202,0.0,-999.0,96,-99.99,,,-99.99,,2013-07-11 10:52:00,
2013-07-11 07:02:00,70.0,69.0,29.43,SSW,202,0.0,-999.0,96,-99.99,,,-99.99,,2013-07-11 11:02:00,
2013-07-11 07:12:00,70.0,69.0,29.44,SSW,202,0.0,-999.0,97,-99.99,,,-99.99,,2013-07-11 11:12:00,
2013-07-11 07:22:00,71.0,70.0,29.44,SSW,202,0.0,-999.0,97,-99.99,,,-99.99,,2013-07-11 11:22:00,
2013-07-11 07:33:00,71.0,70.0,29.44,SSW,202,0.0,-999.0,97,-99.99,,,-99.99,,2013-07-11 11:33:00,
2013-07-11 07:43:00,71.0,70.0,29.44,SSW,202,0.0,-999.0,97,-99.99,,,-99.99,,2013-07-11 11:43:00,
2013-07-11 07:53:00,71.0,70.0,29.44,SSW,202,0.0,-999.0,97,-99.99,,,-99.99,,2013-07-11 11:53:00,
2013-07-11 08:01:00,71.0,70.0,29.44,SSW,202,0.0,-999.0,96,-99.99,,,-99.99,,2013-07-11 12:01:00,
2013-07-11 08:12:00,71.0,70.0,29.45,SSW,202,0.0,-999.0,97,-99.99,,,-99.99,,2013-07-11 12:12:00,
2013-07-11 08:22:00,71.0,70.0,29.46,SSW,202,0.0,-999.0,97,-99.99,,,-99.99,,2013-07-11 12:22:00,
2013-07-11 08:33:00,71.0,70.0,29.46,SSW,202,0.0,-999.0,97,-99.99,,,-99.99,,2013-07-11 12:33:00,
2013-07-11 08:43:00,72.0,70.0,29.46,SSW,202,0.0,-999.0,95,-99.99,,,-99.99,,2013-07-11 12:43:00,
2013-07-11 08:55:00,72.0,70.0,29.46,SSW,202,0.0,-999.0,95,-99.99,,,-99.99,,2013-07-11 12:55:00,
2013-07-11 09:14:00,72.0,70.0,29.46,SSW,202,0.0,-999.0,95,-99.99,,,-99.99,,2013-07-11 13:14:00,
2013-07-11 09:34:00,72.0,70.0,29.45,SSW,202,0.0,-999.0,95,-99.99,,,-99.99,,2013-07-11 13:34:00,
2013-07-11 10:05:00,74.0,72.0,29.46,SW,215,0.0,-999.0,93,-99.99,,,-99.99,,2013-07-11 14:05:00,
2013-07-11 10:15:00,74.0,71.0,29.46,SW,215,0.0,-999.0,90,-99.99,,,-99.99,,2013-07-11 14:15:00,
2013-07-11 10:25:00,74.0,71.0,29.47,SW,215,0.0,-999.0,91,-99.99,,,-99.99,,2013-07-11 14:25:00,
2013-07-11 10:35:00,74.0,71.0,29.47,SW,215,0.0,-999.0,91,-99.99,,,-99.99,,2013-07-11 14:35:00,
2013-07-11 10:45:00,75.0,73.0,29.47,SW,215,0.0,-999.0,92,-99.99,,,-99.99,,2013-07-11 14:45:00,
2013-07-11 10:54:00,75.0,73.0,29.47,SW,215,0.0,-999.0,92,-99.99,,,-99.99,,2013-07-11 14:54:00,
2013-07-11 11:06:00,75.0,72.0,29.47,SW,215,0.0,-999.0,89,-99.99,,,-99.99,,2013-07-11 15:06:00,
2013-07-11 11:24:00,76.0,73.0,29.48,SW,215,0.0,-999.0,89,-99.99,,,-99.99,,2013-07-11 15:24:00,
2013-07-11 11:38:00,76.0,72.0,29.48,SW,217,0.0,-999.0,87,-99.99,,,-99.99,,2013-07-11 15:38:00,
2013-07-11 11:47:00,77.0,72.0,29.48,NW,321,1.0,-999.0,85,-99.99,,,-99.99,,2013-07-11 15:47:00,
2013-07-11 12:06:00,77.0,71.0,29.48,NW,321,0.0,-999.0,81,-99.99,,,-99.99,,2013-07-11 16:06:00,
2013-07-11 12:15:00,79.0,71.0,29.47,NW,323,1.0,-999.0,76,-99.99,,,-99.99,,2013-07-11 16:15:00,
2013-07-11 12:35:00,79.0,70.0,29.47,NW,320,0.0,-999.0,74,-99.99,,,-99.99,,2013-07-11 16:35:00,
2013-07-11 12:55:00,80.0,72.0,29.47,NW,320,0.0,-999.0,76,-99.99,,,-99.99,,2013-07-11 16:55:00,
2013-07-11 13:03:00,80.0,71.0,29.47,NW,320,0.0,-999.0,73,-99.99,,,-99.99,,2013-07-11 17:03:00,
2013-07-11 13:17:00,80.0,71.0,29.46,NW,320,0.0,-999.0,73,-99.99,,,-99.99,,2013-07-11 17:17:00,
2013-07-11 13:38:00,81.0,72.0,29.46,SSE,158,0.0,-999.0,74,-99.99,,,-99.99,,2013-07-11 17:38:00,
2013-07-11 13:47:00,82.0,71.0,29.46,South,171,0.0,-999.0,70,-99.99,,,-99.99,,2013-07-11 17:47:00,
2013-07-11 13:53:00,82.0,71.0,29.46,South,171,0.0,-999.0,70,-99.99,,,-99.99,,2013-07-11 17:53:00,
2013-07-11 14:06:00,81.0,72.0,29.46,NW,318,0.0,-999.0,73,-99.99,,,-99.99,,2013-07-11 18:06:00,
2013-07-11 14:24:00,82.0,73.0,29.46,SSW,211,0.0,-999.0,75,-99.99,,,-99.99,,2013-07-11 18:24:00,
2013-07-11 14:35:00,82.0,73.0,29.46,SW,234,1.0,-999.0,74,-99.99,,,-99.99,,2013-07-11 18:35:00,
2013-07-11 14:47:00,83.0,71.0,29.46,South,174,0.0,-999.0,68,-99.99,,,-99.99,,2013-07-11 18:47:00,
2013-07-11 14:54:00,83.0,71.0,29.46,South,174,0.0,-999.0,68,-99.99,,,-99.99,,2013-07-11 18:54:00,
2013-07-11 15:05:00,83.0,70.0,29.46,South,172,0.0,-999.0,65,-99.99,,,-99.99,,2013-07-11 19:05:00,
2013-07-11 15:39:00,84.0,72.0,29.45,South,174,0.0,-999.0,67,-99.99,,,-99.99,,2013-07-11 19:39:00,
2013-07-11 15:46:00,83.0,70.0,29.46,WNW,297,1.0,-999.0,66,-99.99,,,-99.99,,2013-07-11 19:46:00,
2013-07-11 15:56:00,83.0,70.0,29.46,WNW,297,1.0,-999.0,66,-99.99,,,-99.99,,2013-07-11 19:56:00,
2013-07-11 16:07:00,81.0,72.0,29.46,NW,304,1.0,-999.0,73,-99.99,,,-99.99,,2013-07-11 20:07:00,
2013-07-11 16:13:00,79.0,70.0,29.46,WNW,283,1.0,-999.0,75,-99.99,,,-99.99,,2013-07-11 20:13:00,
2013-07-11 16:48:00,79.0,71.0,29.46,NW,321,0.0,-999.0,77,-99.99,,,-99.99,,2013-07-11 20:48:00,
2013-07-11 16:54:00,79.0,71.0,29.46,NW,321,0.0,-999.0,77,-99.99,,,-99.99,,2013-07-11 20:54:00,
2013-07-11 17:06:00,78.0,69.0,29.47,WNW,287,1.0,-999.0,74,-99.99,,,-99.99,,2013-07-11 21:06:00,
2013-07-11 17:15:00,78.0,69.0,29.47,WNW,288,0.0,-999.0,75,-99.99,,,-99.99,,2013-07-11 21:15:00,
2013-07-11 17:25:00,78.0,69.0,29.47,WNW,288,0.0,-999.0,75,-99.99,,,-99.99,,2013-07-11 21:25:00,
2013-07-11 17:36:00,78.0,69.0,29.47,WNW,298,1.0,-999.0,74,-99.99,,,-99.99,,2013-07-11 21:36:00,
2013-07-11 17:45:00,77.0,68.0,29.47,NNW,327,0.0,-999.0,74,-99.99,,,-99.99,,2013-07-11 21:45:00,
2013-07-11 17:56:00,77.0,68.0,29.47,NNW,327,0.0,-999.0,74,-99.99,,,-99.99,,2013-07-11 21:56:00,
2013-07-11 18:17:00,77.0,68.0,29.47,South,174,1.0,-999.0,73,-99.99,,,-99.99,,2013-07-11 22:17:00,
2013-07-11 18:48:00,77.0,69.0,29.48,SE,138,0.0,-999.0,76,-99.99,,,-99.99,,2013-07-11 22:48:00,
2013-07-11 18:54:00,77.0,68.0,29.49,ENE,69,0.0,-999.0,74,-99.99,,,-99.99,,2013-07-11 22:54:00,
2013-07-11 19:06:00,77.0,68.0,29.49,ENE,69,0.0,-999.0,74,-99.99,,,-99.99,,2013-07-11 23:06:00,
2013-07-11 19:14:00,77.0,68.0,29.49,NW,325,0.0,-999.0,73,-99.99,,,-99.99,,2013-07-11 23:14:00,
2013-07-11 19:26:00,76.0,67.0,29.50,NW,325,0.0,-999.0,74,-99.99,,,-99.99,,2013-07-11 23:26:00,
2013-07-11 19:36:00,76.0,67.0,29.50,NW,325,0.0,-999.0,74,-99.99,,,-99.99,,2013-07-11 23:36:00,
2013-07-11 19:47:00,76.0,69.0,29.51,NW,325,0.0,-999.0,78,-99.99,,,-99.99,,2013-07-11 23:47:00,
2013-07-11 19:56:00,75.0,69.0,29.51,NW,325,0.0,-999.0,82,-99.99,,,-99.99,,2013-07-11 23:56:00,
2013-07-11 20:15:00,74.0,68.0,29.52,NW,325,0.0,-999.0,83,-99.99,,,-99.99,,2013-07-12 00:15:00,
2013-07-11 20:26:00,74.0,68.0,29.52,NW,325,0.0,-999.0,83,-99.99,,,-99.99,,2013-07-12 00:26:00,
2013-07-11 20:37:00,73.0,68.0,29.52,NW,325,0.0,-999.0,85,-99.99,,,-99.99,,2013-07-12 00:37:00,
2013-07-11 20:45:00,72.0,68.0,29.52,NW,325,0.0,-999.0,86,-99.99,,,-99.99,,2013-07-12 00:45:00,
2013-07-11 20:55:00,71.0,67.0,29.52,NW,325,0.0,-999.0,87,-99.99,,,-99.99,,2013-07-12 00:55:00,
2013-07-11 21:05:00,71.0,67.0,29.52,NW,325,0.0,-999.0,87,-99.99,,,-99.99,,2013-07-12 01:05:00,
2013-07-11 21:14:00,70.0,67.0,29.52,NW,325,0.0,-999.0,89,-99.99,,,-99.99,,2013-07-12 01:14:00,
2013-07-11 21:37:00,69.0,66.0,29.52,NW,325,0.0,-999.0,90,-99.99,,,-99.99,,2013-07-12 01:37:00,
2013-07-11 21:55:00,67.0,65.0,29.53,NW,325,0.0,-999.0,92,-99.99,,,-99.99,,2013-07-12 01:55:00,
2013-07-11 22:08:00,67.0,65.0,29.53,NW,325,0.0,-999.0,92,-99.99,,,-99.99,,2013-07-12 02:08:00,
2013-07-11 22:17:00,66.0,64.0,29.54,NW,325,0.0,-999.0,93,-99.99,,,-99.99,,2013-07-12 02:17:00,
2013-07-11 22:26:00,66.0,64.0,29.54,NW,325,0.0,-999.0,93,-99.99,,,-99.99,,2013-07-12 02:26:00,
2013-07-11 22:36:00,66.0,64.0,29.54,NW,325,0.0,-999.0,93,-99.99,,,-99.99,,2013-07-12 02:36:00,
2013-07-11 22:45:00,66.0,64.0,29.54,NW,325,0.0,-999.0,94,-99.99,,,-99.99,,2013-07-12 02:45:00,
2013-07-11 23:04:00,65.0,63.0,29.54,NW,325,0.0,-999.0,94,-99.99,,,-99.99,,2013-07-12 03:04:00,
2013-07-11 23:14:00,65.0,64.0,29.54,NW,325,0.0,-999.0,95,-99.99,,,-99.99,,2013-07-12 03:14:00,
2013-07-11 23:37:00,65.0,64.0,29.55,NW,325,0.0,-999.0,95,-99.99,,,-99.99,,2013-07-12 03:37:00,
2013-07-11 23:46:00,66.0,64.0,29.54,North,360,0.0,-999.0,94,-99.99,,,-99.99,,2013-07-12 03:46:00,
2013-07-11 23:54:00,66.0,64.0,29.55,North,9,0.0,-999.0,93,-99.99,,,-99.99,,2013-07-12 03:54:00,